TimeEST,TemperatureF,Dew PointF,Humidity,Sea Level PressureIn,VisibilityMPH,Wind Direction,Wind SpeedMPH,Gust SpeedMPH,PrecipitationIn,Events,Conditions,WindDirDegrees,DateUTC
12:35 AM,35.6,32.0,87,29.76,4.0,ENE,4.6,-,N/A,,Overcast,60,2012-12-19 05:35:00
12:55 AM,35.1,32.0,89,29.78,4.0,NE,3.5,-,N/A,,Overcast,40,2012-12-19 05:55:00
1:51 AM,35.6,32.0,87,29.80,4.0,Calm,Calm,-,N/A,,Overcast,0,2012-12-19 06:51:00
1:55 AM,35.1,32.0,89,29.82,4.0,Calm,Calm,-,N/A,,Overcast,0,2012-12-19 06:55:00
2:55 AM,34.0,32.0,92,29.86,4.0,NNW,3.5,-,N/A,,Overcast,330,2012-12-19 07:55:00
3:47 AM,35.6,32.0,87,29.86,4.0,Calm,Calm,-,N/A,,Overcast,0,2012-12-19 08:47:00
3:55 AM,35.1,32.0,89,29.88,4.0,Calm,Calm,-,N/A,,Overcast,0,2012-12-19 08:55:00
4:55 AM,35.1,30.9,85,29.90,3.0,Calm,Calm,-,N/A,,Overcast,0,2012-12-19 09:55:00
5:27 AM,33.8,30.2,87,29.89,1.8,Calm,Calm,-,N/A,,Overcast,0,2012-12-19 10:27:00
5:47 AM,33.8,30.2,87,29.90,2.0,Calm,Calm,-,N/A,,Overcast,0,2012-12-19 10:47:00
5:55 AM,34.0,30.9,89,29.92,2.0,Calm,Calm,-,N/A,,Overcast,0,2012-12-19 10:55:00
6:14 AM,33.8,32.0,93,29.91,3.0,Calm,Calm,-,N/A,,Overcast,0,2012-12-19 11:14:00
6:41 AM,33.8,32.0,93,29.91,2.5,Calm,Calm,-,N/A,,Overcast,0,2012-12-19 11:41:00
6:55 AM,34.0,32.0,92,29.94,2.5,Calm,Calm,-,N/A,,Overcast,0,2012-12-19 11:55:00
7:09 AM,35.6,32.0,87,29.92,3.0,Calm,Calm,-,N/A,,Overcast,0,2012-12-19 12:09:00
7:24 AM,33.8,32.0,93,29.93,2.5,Calm,Calm,-,N/A,,Overcast,0,2012-12-19 12:24:00
7:55 AM,35.1,32.0,89,29.96,2.5,Calm,Calm,-,N/A,,Overcast,0,2012-12-19 12:55:00
8:02 AM,35.6,32.0,87,29.95,3.0,Calm,Calm,-,N/A,,Overcast,0,2012-12-19 13:02:00
8:13 AM,35.6,32.0,87,29.95,2.5,Calm,Calm,-,N/A,,Overcast,0,2012-12-19 13:13:00
8:55 AM,35.1,33.1,92,30.00,2.0,Calm,Calm,-,N/A,,Overcast,0,2012-12-19 13:55:00
9:11 AM,37.4,33.8,87,29.99,4.0,Calm,Calm,-,N/A,,Overcast,0,2012-12-19 14:11:00
9:31 AM,37.4,33.8,87,30.00,9.0,West,5.8,-,N/A,,Mostly Cloudy,270,2012-12-19 14:31:00
9:55 AM,37.9,30.9,76,30.04,10.0,West,6.9,-,N/A,,Mostly Cloudy,280,2012-12-19 14:55:00
10:21 AM,37.4,30.2,75,30.02,10.0,West,5.8,-,N/A,,Overcast,280,2012-12-19 15:21:00
10:55 AM,37.9,30.0,73,30.05,10.0,West,5.8,-,N/A,,Overcast,270,2012-12-19 15:55:00
11:55 AM,37.9,30.0,73,30.06,10.0,West,6.9,-,N/A,,Mostly Cloudy,270,2012-12-19 16:55:00
12:55 PM,39.0,28.9,67,30.06,10.0,WNW,8.1,-,N/A,,Overcast,290,2012-12-19 17:55:00
1:55 PM,37.9,28.9,70,30.05,10.0,WSW,5.8,-,N/A,,Overcast,240,2012-12-19 18:55:00
2:55 PM,37.9,28.0,68,30.06,10.0,Calm,Calm,-,N/A,,Scattered Clouds,0,2012-12-19 19:55:00
3:55 PM,37.9,28.9,70,30.08,10.0,SW,6.9,-,N/A,,Partly Cloudy,230,2012-12-19 20:55:00
4:21 PM,37.4,28.4,70,30.06,10.0,SW,5.8,-,N/A,,Mostly Cloudy,230,2012-12-19 21:21:00
4:55 PM,37.9,28.9,70,30.09,10.0,Calm,Calm,-,N/A,,Overcast,0,2012-12-19 21:55:00
5:55 PM,37.9,30.0,73,30.10,10.0,Calm,Calm,-,N/A,,Overcast,0,2012-12-19 22:55:00
6:55 PM,37.9,30.9,76,30.10,10.0,Calm,Calm,-,N/A,,Overcast,0,2012-12-19 23:55:00
7:55 PM,37.0,30.9,79,30.10,10.0,Calm,Calm,-,N/A,,Overcast,0,2012-12-20 00:55:00
8:55 PM,36.0,30.0,79,30.09,10.0,ENE,4.6,-,N/A,,Overcast,70,2012-12-20 01:55:00
9:55 PM,36.0,30.0,79,30.07,10.0,ENE,5.8,-,N/A,,Overcast,70,2012-12-20 02:55:00
10:08 PM,35.6,30.2,81,30.06,10.0,ENE,4.6,-,N/A,,Overcast,60,2012-12-20 03:08:00
10:22 PM,35.6,30.2,81,30.05,10.0,ENE,4.6,-,N/A,,Overcast,70,2012-12-20 03:22:00
10:43 PM,35.6,30.2,81,30.03,10.0,ENE,8.1,-,N/A,,Overcast,60,2012-12-20 03:43:00
10:55 PM,36.0,30.0,79,30.05,10.0,ENE,8.1,-,N/A,,Overcast,70,2012-12-20 03:55:00
11:55 PM,37.0,30.9,79,30.00,8.0,ENE,9.2,-,N/A,,Overcast,70,2012-12-20 04:55:00